Location: Carrer del Canonge
(41.4901°N, 2.2931°E)
Time: 14:43:23
(UTC+00:00)

ATLAS 2AS CENTAUR R/B - Pass Details

Date: 18 September 2020
Orbit: 939 x 1273 km, 63.7° (Epoch: 27 October)

Event Time Altitude Azimuth Distance (km) Brightness Sun altitude
Rises 20:59:22 0° 214° (SW) 4,171 5.8 -33.1°
Reaches altitude 10° 21:02:07 10° 215° (SW) 3,230 5.1 -33.5°
Enters shadow 21:04:49 24° 216° (SW) 2,344 4.4 -33.9°
Exits shadow 21:11:57 57° 28° (NNE) 1,470 3.3 -34.9°
Drops below altitude 10° 21:18:00 10° 34° (NE) 3,241 5.3 -35.7°
Sets 21:20:46 0° 35° (NE) 4,186 5.9 -36.1°
